Cloud_Cover
100 100 100 100 100 100 100 100 100 100 100 100 26 52 24 70 25 10 1 5 4 19 23 96 100 100 16 5 40 72 100 100 100 100 100 100 66 85 53 24 76 100 100 100 98 97 99 100 16 23 14 5 7 5
100 100 100 100 100 100 100 100 100 100 100 99 41 26 100 22 98 12 0 0 5 3 18 83 100 99 37 31 23 71 100 100 100 100 100 100 78 5 5 64 100 15 100 100 100 95 100 100 58 11 5 5 10 59
100 100 100 100 100 100 100 100 100 100 100 100 100 43 30 100 100 70 8 4 0 4 2 6 20 29 13 60 15 46 100 97 100 55 94 47 95 80 5 96 99 100 60 100 100 100 100 100 100 26 6 22 35 12
100 100 100 100 100 100 100 100 100 100 100 100 100 100 83 64 100 100 73 31 4 0 18 5 0 19 14 100 100 33 14 70 99 85 55 5 54 94 19 63 98 48 7 96 100 100 100 100 100 98 61 15 11 63
100 100 100 100 100 100 100 100 100 100 100 100 100 100 98 80 60 100 100 95 72 16 4 37 10 58 99 95 100 99 4 11 5 21 63 6 67 100 81 92 24 5 43 9 48 88 100 63 66 37 21 5 5 4
100 100 100 100 100 100 100 100 100 100 100 100 100 35 100 100 35 67 100 100 79 100 12 12 5 28 11 6 21 100 6 0 4 8 21 8 100 91 91 34 16 5 29 7 78 48 6 5 90 34 11 5 5 5
100 100 100 100 100 100 100 98 100 100 100 98 100 5 15 100 99 38 15 97 96 20 79 83 3 0 5 16 21 10 0 0 6 49 64 99 72 12 10 54 41 38 4 2 15 84 95 99 71 2 0 0 0 0
100 100 100 100 100 100 100 100 100 100 100 57 89 79 5 24 99 99 9 5 97 91 5 100 100 6 2 18 75 74 22 0 33 89 96 100 99 92 23 46 85 2 6 85 100 91 53 2 0 0 0 0 0 4
100 100 100 100 100 100 100 100 100 100 100 98 8 56 70 8 5 32 85 12 5 44 78 67 100 100 9 3 2 34 31 38 21 8 61 89 100 97 52 27 2 0 46 16 3 1 0 0 0 0 0 4 5 35
100 100 100 100 100 100 100 100 100 100 100 79 11 7 68 71 5 5 5 41 16 3 54 27 5 26 14 3 0 0 5 8 5 5 3 97 86 32 5 5 45 25 1 0 0 0 0 0 0 0 0 4 8 95
100 100 100 100 100 100 100 100 100 100 100 87 56 41 23 98 63 5 5 5 24 5 3 1 0 2 5 5 1 0 2 5 34 5 3 5 5 0 3 44 2 0 0 0 0 0 0 0 0 0 0 2 66 34
100 100 100 100 100 100 100 100 100 80 100 98 100 64 18 8 88 65 5 5 5 5 5 4 0 0 5 4 0 1 0 2 2 2 1 4 0 2 5 4 0 0 0 0 0 2 0 3 4 5 0 0 5 43
100 100 100 100 100 100 95 83 67 100 100 100 100 99 74 7 8 74 95 5 5 5 5 5 5 3 5 0 0 4 5 5 0 0 0 0 0 0 0 0 0 0 0 0 4 5 5 5 5 4 4 14 96 37
100 100 88 100 100 100 100 98 100 99 100 100 100 100 40 5 5 5 44 19 12 25 20 5 5 38 10 5 5 5 4 5 5 1 0 0 0 0 0 0 0 0 0 5 5 5 5 5 2 0 53 92 13 11
100 100 100 92 98 92 100 100 100 99 100 100 85 42 36 5 5 5 5 9 97 5 5 24 15 5 5 5 5 5 78 100 84 4 2 5 0 0 0 0 0 5 5 5 5 5 5 11 3 80 26 78 43 0
98 100 100 100 100 100 100 100 92 100 100 100 99 56 6 5 5 20 5 5 91 71 56 100 95 66 5 5 5 5 16 70 11 0 4 0 0 0 0 0 3 51 47 9 5 5 6 5 35 55 100 13 0 0
100 100 100 92 100 100 100 99 100 96 100 100 100 68 5 5 6 85 96 63 28 94 100 100 100 100 97 52 10 49 35 5 5 5 5 1 5 5 5 7 79 10 5 5 5 5 24 57 100 62 4 4 0 0
100 100 83 17 56 89 100 100 100 96 100 100 99 6 98 81 84 86 82 93 100 74 95 100 93 99 71 87 59 10 4 5 5 7 5 2 5 5 5 5 17 64 28 20 22 24 46 36 20 5 5 4 5 5
100 100 86 44 67 28 39 27 94 99 100 100 86 18 5 5 5 5 44 77 67 95 56 98 100 62 79 50 31 33 5 16 20 2 22 4 5 5 6 29 31 100 95 94 52 95 100 100 51 11 20 5 5 5
100 96 81 5 32 100 95 99 81 93 100 100 94 11 32 100 19 5 5 3 5 5 5 56 100 90 38 85 87 62 78 55 91 34 30 8 5 6 5 13 44 99 93 100 100 100 100 100 93 53 58 6 5 5
30 41 100 10 20 96 88 100 91 81 100 100 100 58 62 100 99 95 50 0 0 1 5 5 16 100 100 100 64 100 59 24 36 50 60 74 59 70 15 31 79 100 100 100 100 100 100 100 88 100 100 32 5 5
37 66 49 98 23 59 90 87 94 100 99 74 70 55 11 34 64 71 33 5 5 5 4 7 5 75 68 100 91 100 86 85 64 48 100 100 100 93 73 16 81 88 100 100 100 100 100 100 100 100 98 42 48 64
61 92 99 64 35 77 88 67 83 95 96 83 83 89 38 38 65 21 11 5 4 5 5 5 5 14 95 100 94 78 65 92 41 21 100 100 100 100 78 38 24 100 100 100 100 100 100 100 100 100 82 96 79 52
52 73 91 89 97 93 100 97 92 100 100 91 83 26 39 5 9 25 26 17 5 5 4 5 5 7 5 59 99 99 76 57 82 100 100 100 100 99 90 51 38 17 69 100 100 100 100 100 100 99 45 62 91 86
100 100 67 100 100 99 100 100 84 86 10 85 91 76 20 16 77 62 17 7 9 50 5 5 46 60 80 75 99 100 94 100 100 100 100 100 100 100 80 91 87 87 45 66 97 100 100 100 100 100 100 100 93 93
100 52 93 99 100 100 99 98 38 94 99 43 73 25 7 5 5 4 4 42 94 70 4 2 67 74 45 43 62 100 100 100 100 100 100 100 100 100 100 100 100 98 78 79 100 100 100 100 100 91 93 60 78 97
100 100 100 99 100 100 90 95 92 96 100 98 99 87 96 81 100 23 74 48 100 100 34 0 6 34 6 6 32 85 100 100 100 100 100 100 100 100 100 100 100 84 100 98 100 100 100 100 100 97 69 99 97 71
100 100 100 100 100 96 81 65 66 41 80 94 100 100 100 72 21 39 99 100 100 100 45 4 3 5 9 34 62 100 100 100 100 100 100 100 100 100 100 100 100 100 100 100 100 100 100 99 100 81 74 100 82 100
100 100 100 100 100 100 100 72 70 46 82 90 100 68 32 13 68 98 100 100 100 100 68 63 11 41 100 96 97 100 100 100 100 100 100 100 100 100 100 100 100 100 99 98 100 100 100 100 100 100 94 99 100 100
98 100 100 100 100 100 98 86 97 100 100 100 100 100 100 100 100 95 100 100 100 100 100 98 100 87 82 94 100 71 100 100 100 100 100 100 100 100 100 100 100 100 100 100 100 100 100 99 100 88 99 100 100 100
100 100 100 98 100 100 100 100 100 100 100 100 100 100 100 100 100 100 100 100 96 100 100 100 98 99 100 100 97 100 100 100 100 100 100 100 100 100 100 100 100 100 100 100 100 100 100 100 100 100 100 100 100 100
100 100 100 100 100 100 100 100 100 100 100 100 100 100 100 100 100 100 99 100 100 100 100 100 99 100 100 100 100 100 100 100 100 100 100 100 100 100 100 100 100 100 100 100 100 100 100 100 100 100 100 100 100 100
100 100 100 100 100 100 100 100 100 100 100 100 100 100 100 100 100 100 100 98 96 100 100 100 100 100 100 99 100 100 100 100 100 100 100 100 100 100 100 100 100 100 100 100 100 100 100 100 100 100 100 100 100 100